Location: ?
(35.4064°N, 139.3593°E)
Time: 14:13:25
(UTC+00:00)

Meteor 2-4 Rocket - Pass Details

Date: 18 April 2024
Orbit: 799 x 907 km, 81.2° (Epoch: 17 May)

Event Time Altitude Azimuth Distance (km) Brightness Sun altitude
Exits shadow 17:35:51 67° 131° (SE) 881 3.7 -27.9°
Maximum altitude 17:36:18 71° 96° (E) 863 3.7 -27.8°
Drops below altitude 10° 17:41:48 10° 13° (NNE) 2,449 6.7 -26.9°
Sets 17:44:15 0° 11° (NNE) 3,403 7.6 -26.5°
